SL-14 DEB, 45290

Orbit data source: Space-Track

SL-14 DEB, 45290 is space debris in LEO originally from a launch on Thu, 15 Aug 1991 UTC launched from the Plesetsk Missile And Space Complex (PKMTR). Debris objects in space refer to the collection of defunct objects orbiting the Earth. Examples of debris include non-operational satellites, rocket bodies, and fragments generated from explosions, collisions, or faulty payload assembly.

Loading next visibility...
Identifier
45290, 1991-056AC
Orbit
LEO
Country
Flag of CISCIS
Related business
Manufacturer
Unknown
Mission
Spacecraft
Bus & Motor
Unknown
Mass
Unknown
Launch date (UTC)
1991-08-15 (34 years ago)
Launch vehicle
Unknown
Launch site
Plesetsk Missile And Space Complex (PKMTR)
Object type
Payload
Rocket body
Debris
Shape & HBR
Unknown
Radar Cross Section
Small (<0.1 m²)

Expand to show TLE details & history
Last TLE update: 1 day ago

TLE from 1 day ago
0 SL-14 DEB
1 45290U 91056AC  25260.06690874  .00000530  00000-0  90913-3 0  9999
2 45290  82.6363 301.1794 0104204 253.7827 105.1824 13.40888033271795
Epoch: 2025-09-17T01:36Z
TLE epoch observation values (Epoch: 2025-09-17T01:36:20.915Z)
Latitude
0.00003°
Longitude
-79.15593°
Altitude
1,129.999 km
Speed
7.277 km/s
True Right ascension
20h 04m 43s
True Declination
0° 00' 00"
Sunlit
Object was in full shadow at epoch
Visualization orbit readout
Latitude
Unknown
Longitude
Unknown
Altitude
Unknown
Speed
Unknown
Apparent Right ascension
Unknown
Apparent Declination
Unknown
Sunlit
N/A
Visualization observer readout
Local Sidereal Time
06:15:51
Azimuth
Unknown
Elevation
Unknown
Doppler factor
Unknown
Orbital elements
Apogee altitude
1,181.139 km
Perigee altitude
1,025.222 km
Semi-major axis
7,481.318 km
Eccentricity
0.01042
Inclination
82.6363°
RAAN
301.1794°
Arg. of periapsis
253.7827°
True anomaly
106.33082°
Mean anomaly
105.1824°
Eccentric anomaly
105.75701°
Mean motion
3.3541 °/min
Orbital period
107.33 mins
BSTAR
0.00090913
Loading maneuver chart data...
Computing Atmospheric mass density...
Loading historical data...
Loading historical data...
Loading historical data...
Loading historical data...
Loading historical data...
Loading historical data...
Loading historical data...

Documentation

Showing up to 5 results
|